This is the latest recevied weather packets stored in our database for station/object VK4AB-13. If no packets are shown the sender has not sent any weather packets the latest 10 day(s).
| Time | Temp. | Humidity | Pressure | Rain* | Wind** | Luminosity | Snow |
|---|---|---|---|---|---|---|---|
| 1778203121 | 21.11° C | 29% | 1019.6 hPa | 0 mm | - | 705 W/m² | - |
| 1778202821 | 20.56° C | 29% | 1019.7 hPa | 0 mm | - | 710 W/m² | - |
| 1778202521 | 20.56° C | 28% | 1019.8 hPa | 0 mm | - | 710 W/m² | - |
| 1778202221 | 20.56° C | 29% | 1019.9 hPa | 0 mm | - | 91 W/m² | - |
| 1778201921 | 20° C | 29% | 1019.9 hPa | 0 mm | - | 629 W/m² | - |
| 1778201621 | 20° C | 29% | 1020.1 hPa | 0 mm | - | 664 W/m² | - |
| 1778201321 | 20° C | 30% | 1020.2 hPa | 0 mm | - | 700 W/m² | - |
| 1778201021 | 20° C | 30% | 1020.3 hPa | 0 mm | - | 691 W/m² | - |
| 1778200721 | 20° C | 30% | 1020.3 hPa | 0 mm | - | 680 W/m² | - |
| 1778200421 | 19.44° C | 30% | 1020.2 hPa | 0 mm | - | 677 W/m² | - |
| 1778200121 | 19.44° C | 31% | 1020.3 hPa | 0 mm | - | 673 W/m² | - |
| 1778199821 | 19.44° C | 33% | 1020.4 hPa | 0 mm | - | 668 W/m² | - |
| 1778199522 | 18.89° C | 31% | 1020.4 hPa | 0 mm | - | 668 W/m² | - |
| 1778199221 | 18.89° C | 33% | 1020.5 hPa | 0 mm | - | 591 W/m² | - |
| 1778198921 | 18.89° C | 34% | 1020.6 hPa | 0 mm | - | 643 W/m² | - |
| 1778198621 | 18.33° C | 35% | 1020.6 hPa | 0 mm | - | 631 W/m² | - |
| 1778198321 | 18.33° C | 36% | 1020.7 hPa | 0 mm | - | 622 W/m² | - |
| 1778198021 | 17.78° C | 36% | 1020.6 hPa | 0 mm | - | 615 W/m² | - |
| 1778197721 | 17.78° C | 35% | 1020.7 hPa | 0 mm | - | 603 W/m² | - |
| 1778197421 | 17.78° C | 36% | 1020.8 hPa | 0 mm | - | 589 W/m² | - |
| 1778197122 | 17.22° C | 38% | 1020.8 hPa | 0 mm | - | 570 W/m² | - |
| 1778196822 | 16.67° C | 40% | 1020.9 hPa | 0 mm | - | 570 W/m² | - |
| 1778196522 | 16.67° C | 40% | 1020.9 hPa | 0 mm | - | 557 W/m² | - |
| 1778196221 | 16.11° C | 41% | 1020.9 hPa | 0 mm | - | 547 W/m² | - |
| 1778195921 | 16.11° C | 43% | 1021 hPa | 0 mm | - | 536 W/m² | - |
* Rain latest hour (hover to see other rain measurements)
** Current wind speed in m/s (hover to see current wind gust speed)